Time,TemperatureF,DewpointF,PressureIn,WindDirection,WindDirectionDegrees,WindSpeedMPH,WindSpeedGustMPH,Humidity,HourlyPrecipIn,Conditions,Clouds,dailyrainin,SoftwareType,DateUTC
2013-02-10 00:09:00,30.8,29.0,30.18,WSW,245,0.0,1.0,91,0.00,,,0.00,weatherlink.com 1.10,2013-02-10 05:09:00,
2013-02-10 00:25:00,30.2,28.0,30.17,WSW,245,0.0,0.0,91,0.00,,,0.00,weatherlink.com 1.10,2013-02-10 05:25:00,
2013-02-10 00:40:00,29.8,28.0,30.17,WSW,244,0.0,0.0,92,0.00,,,0.00,weatherlink.com 1.10,2013-02-10 05:40:00,
2013-02-10 00:55:00,29.9,28.0,30.18,WSW,246,1.0,1.0,92,0.00,,,0.00,weatherlink.com 1.10,2013-02-10 05:55:00,
2013-02-10 01:10:00,29.9,28.0,30.18,WSW,257,0.0,0.0,93,0.00,,,0.00,weatherlink.com 1.10,2013-02-10 06:10:00,
2013-02-10 01:25:00,29.7,28.0,30.19,WSW,256,0.0,0.0,93,0.00,,,0.00,weatherlink.com 1.10,2013-02-10 06:25:00,
2013-02-10 01:40:00,29.4,27.0,30.19,WSW,256,0.0,0.0,92,0.00,,,0.00,weatherlink.com 1.10,2013-02-10 06:40:00,
2013-02-10 01:55:00,29.1,27.0,30.20,WSW,256,0.0,0.0,93,0.00,,,0.00,weatherlink.com 1.10,2013-02-10 06:55:00,
2013-02-10 02:09:00,29.1,28.0,30.20,WSW,255,0.0,0.0,94,0.00,,,0.00,weatherlink.com 1.10,2013-02-10 07:09:00,
2013-02-10 02:25:00,28.5,27.0,30.19,WSW,256,0.0,0.0,93,0.00,,,0.00,weatherlink.com 1.10,2013-02-10 07:25:00,
2013-02-10 02:40:00,28.5,27.0,30.20,WSW,255,0.0,0.0,95,0.00,,,0.00,weatherlink.com 1.10,2013-02-10 07:40:00,
2013-02-10 02:55:00,28.6,27.0,30.20,WSW,256,0.0,0.0,94,0.00,,,0.00,weatherlink.com 1.10,2013-02-10 07:55:00,
2013-02-10 03:10:00,28.3,27.0,30.21,WSW,256,0.0,0.0,94,0.00,,,0.00,weatherlink.com 1.10,2013-02-10 08:10:00,
2013-02-10 03:25:00,27.7,26.0,30.21,WSW,256,0.0,0.0,94,0.00,,,0.00,weatherlink.com 1.10,2013-02-10 08:25:00,
2013-02-10 03:40:00,27.9,27.0,30.21,WSW,256,0.0,0.0,95,0.00,,,0.00,weatherlink.com 1.10,2013-02-10 08:40:00,
2013-02-10 04:10:00,27.8,27.0,30.21,WSW,256,0.0,0.0,95,0.00,,,0.00,weatherlink.com 1.10,2013-02-10 09:10:00,
2013-02-10 04:25:00,28.2,27.0,30.22,WSW,256,0.0,0.0,95,0.00,,,0.00,weatherlink.com 1.10,2013-02-10 09:25:00,
2013-02-10 04:40:00,26.4,25.0,30.22,WSW,256,0.0,0.0,94,0.00,,,0.00,weatherlink.com 1.10,2013-02-10 09:40:00,
2013-02-10 04:55:00,-999.0,-99.9,30.22,North,-999,-999.0,-999.0,-999,0.00,,,0.00,weatherlink.com 1.10,2013-02-10 09:55:00,
2013-02-10 05:11:00,-999.0,-99.9,30.22,North,-999,-999.0,-999.0,-999,0.00,,,0.00,weatherlink.com 1.10,2013-02-10 10:11:00,
2013-02-10 05:25:00,-999.0,-99.9,30.22,North,-999,-999.0,-999.0,-999,0.00,,,0.00,weatherlink.com 1.10,2013-02-10 10:25:00,
2013-02-10 05:40:00,-999.0,-99.9,30.22,North,-999,-999.0,-999.0,-999,0.00,,,0.00,weatherlink.com 1.10,2013-02-10 10:40:00,
2013-02-10 05:56:00,-999.0,-99.9,30.22,North,-999,-999.0,-999.0,-999,0.00,,,0.00,weatherlink.com 1.10,2013-02-10 10:56:00,
2013-02-10 06:11:00,-999.0,-99.9,30.23,North,-999,-999.0,-999.0,-999,0.00,,,0.00,weatherlink.com 1.10,2013-02-10 11:11:00,
2013-02-10 06:26:00,-999.0,-99.9,30.23,North,-999,-999.0,-999.0,-999,0.00,,,0.00,weatherlink.com 1.10,2013-02-10 11:26:00,
2013-02-10 06:41:00,-999.0,-99.9,30.24,North,-999,-999.0,-999.0,-999,0.00,,,0.00,weatherlink.com 1.10,2013-02-10 11:41:00,
2013-02-10 06:56:00,-999.0,-99.9,30.24,North,-999,-999.0,-999.0,-999,0.00,,,0.00,weatherlink.com 1.10,2013-02-10 11:56:00,
2013-02-10 07:11:00,-999.0,-99.9,30.25,North,-999,-999.0,-999.0,-999,0.00,,,0.00,weatherlink.com 1.10,2013-02-10 12:11:00,
2013-02-10 07:26:00,30.8,30.0,30.26,North,4,0.0,2.0,96,0.00,,,0.00,weatherlink.com 1.10,2013-02-10 12:26:00,
2013-02-10 07:41:00,32.4,31.0,30.25,NE,53,0.0,1.0,93,0.00,,,0.00,weatherlink.com 1.10,2013-02-10 12:41:00,
2013-02-10 07:56:00,34.8,32.0,30.26,ENE,66,2.0,2.0,88,0.00,,,0.00,weatherlink.com 1.10,2013-02-10 12:56:00,
2013-02-10 08:11:00,37.2,33.0,30.27,ENE,60,2.0,5.0,83,0.00,,,0.00,weatherlink.com 1.10,2013-02-10 13:11:00,
2013-02-10 08:26:00,38.2,33.0,30.27,ENE,65,5.0,7.0,80,0.00,,,0.00,weatherlink.com 1.10,2013-02-10 13:26:00,
2013-02-10 08:42:00,39.2,35.0,30.27,NE,44,4.0,8.0,83,0.00,,,0.00,weatherlink.com 1.10,2013-02-10 13:42:00,
2013-02-10 08:57:00,39.9,36.0,30.28,ENE,60,4.0,5.0,84,0.00,,,0.00,weatherlink.com 1.10,2013-02-10 13:57:00,
2013-02-10 09:11:00,41.1,35.0,30.28,East,91,3.0,7.0,79,0.00,,,0.00,weatherlink.com 1.10,2013-02-10 14:11:00,
2013-02-10 09:27:00,41.9,35.0,30.29,ENE,62,5.0,7.0,77,0.00,,,0.00,weatherlink.com 1.10,2013-02-10 14:27:00,
2013-02-10 09:41:00,42.8,35.0,30.29,NNE,25,4.0,7.0,75,0.00,,,0.00,weatherlink.com 1.10,2013-02-10 14:41:00,
2013-02-10 09:56:00,43.4,35.0,30.29,ENE,62,5.0,9.0,73,0.00,,,0.00,weatherlink.com 1.10,2013-02-10 14:56:00,
2013-02-10 10:12:00,44.2,35.0,30.29,ENE,62,4.0,8.0,71,0.00,,,0.00,weatherlink.com 1.10,2013-02-10 15:12:00,
2013-02-10 10:27:00,44.7,35.0,30.29,ENE,73,2.0,8.0,69,0.00,,,0.00,weatherlink.com 1.10,2013-02-10 15:27:00,
2013-02-10 10:42:00,45.3,35.0,30.28,ENE,62,6.0,9.0,67,0.00,,,0.00,weatherlink.com 1.10,2013-02-10 15:42:00,
2013-02-10 10:57:00,45.7,35.0,30.29,NE,54,2.0,10.0,67,0.00,,,0.00,weatherlink.com 1.10,2013-02-10 15:57:00,
2013-02-10 11:12:00,46.7,36.0,30.28,East,91,2.0,8.0,67,0.00,,,0.00,weatherlink.com 1.10,2013-02-10 16:12:00,
2013-02-10 11:27:00,47.1,36.0,30.28,East,79,2.0,6.0,65,0.00,,,0.00,weatherlink.com 1.10,2013-02-10 16:27:00,
2013-02-10 11:42:00,46.4,36.0,30.29,NE,34,4.0,6.0,67,0.00,,,0.00,weatherlink.com 1.10,2013-02-10 16:42:00,
2013-02-10 11:57:00,47.0,36.0,30.28,ENE,60,3.0,6.0,67,0.00,,,0.00,weatherlink.com 1.10,2013-02-10 16:57:00,
2013-02-10 12:12:00,48.3,37.0,30.27,ENE,72,0.0,6.0,64,0.00,,,0.00,weatherlink.com 1.10,2013-02-10 17:12:00,
2013-02-10 12:27:00,49.0,36.0,30.27,ENE,75,2.0,7.0,62,0.00,,,0.00,weatherlink.com 1.10,2013-02-10 17:27:00,
2013-02-10 12:42:00,51.7,36.0,30.26,NW,326,2.0,4.0,56,0.00,,,0.00,weatherlink.com 1.10,2013-02-10 17:42:00,
2013-02-10 12:57:00,53.0,36.0,30.24,SSE,151,0.0,5.0,52,0.00,,,0.00,weatherlink.com 1.10,2013-02-10 17:57:00,
2013-02-10 13:12:00,53.4,35.0,30.24,SSW,213,4.0,7.0,51,0.00,,,0.00,weatherlink.com 1.10,2013-02-10 18:12:00,
2013-02-10 13:27:00,54.3,34.0,30.24,SW,217,3.0,9.0,46,0.00,,,0.00,weatherlink.com 1.10,2013-02-10 18:27:00,
2013-02-10 13:42:00,54.4,30.0,30.23,WSW,237,3.0,9.0,39,0.00,,,0.00,weatherlink.com 1.10,2013-02-10 18:42:00,
2013-02-10 13:57:00,55.5,26.0,30.23,ESE,117,4.0,11.0,32,0.00,,,0.00,weatherlink.com 1.10,2013-02-10 18:57:00,
2013-02-10 14:13:00,55.3,26.0,30.22,South,190,2.0,5.0,33,0.00,,,0.00,weatherlink.com 1.10,2013-02-10 19:13:00,
2013-02-10 14:27:00,56.5,27.0,30.21,SSE,149,5.0,8.0,32,0.00,,,0.00,weatherlink.com 1.10,2013-02-10 19:27:00,
2013-02-10 14:42:00,57.1,27.0,30.20,South,184,8.0,10.0,31,0.00,,,0.00,weatherlink.com 1.10,2013-02-10 19:42:00,
2013-02-10 14:57:00,57.1,29.0,30.21,SSW,195,9.0,10.0,34,0.00,,,0.00,weatherlink.com 1.10,2013-02-10 19:57:00,
2013-02-10 15:12:00,56.6,33.0,30.20,South,189,4.0,11.0,41,0.00,,,0.00,weatherlink.com 1.10,2013-02-10 20:12:00,
2013-02-10 15:27:00,56.9,34.0,30.20,SSW,193,3.0,9.0,43,0.00,,,0.00,weatherlink.com 1.10,2013-02-10 20:27:00,
2013-02-10 15:42:00,56.9,36.0,30.19,SSE,165,3.0,10.0,45,0.00,,,0.00,weatherlink.com 1.10,2013-02-10 20:42:00,
2013-02-10 15:57:00,57.1,37.0,30.19,SSW,207,4.0,6.0,47,0.00,,,0.00,weatherlink.com 1.10,2013-02-10 20:57:00,
2013-02-10 16:12:00,56.5,38.0,30.18,SE,137,4.0,10.0,50,0.00,,,0.00,weatherlink.com 1.10,2013-02-10 21:12:00,
2013-02-10 16:28:00,55.9,40.0,30.17,SE,133,5.0,10.0,55,0.00,,,0.00,weatherlink.com 1.10,2013-02-10 21:28:00,
2013-02-10 16:43:00,55.2,41.0,30.17,SSE,151,6.0,8.0,59,0.00,,,0.00,weatherlink.com 1.10,2013-02-10 21:43:00,
2013-02-10 16:58:00,53.7,40.0,30.17,ESE,104,4.0,5.0,61,0.00,,,0.00,weatherlink.com 1.10,2013-02-10 21:58:00,
2013-02-10 17:13:00,50.8,40.0,30.17,ENE,60,5.0,6.0,67,0.00,,,0.00,weatherlink.com 1.10,2013-02-10 22:13:00,
2013-02-10 17:28:00,49.3,40.0,30.17,ENE,58,5.0,6.0,71,0.00,,,0.00,weatherlink.com 1.10,2013-02-10 22:28:00,
2013-02-10 17:43:00,48.0,41.0,30.17,ENE,69,3.0,4.0,76,0.00,,,0.00,weatherlink.com 1.10,2013-02-10 22:43:00,
2013-02-10 17:58:00,46.9,41.0,30.17,ENE,77,3.0,5.0,80,0.00,,,0.00,weatherlink.com 1.10,2013-02-10 22:58:00,
2013-02-10 18:13:00,46.3,41.0,30.17,ENE,67,3.0,3.0,82,0.00,,,0.00,weatherlink.com 1.10,2013-02-10 23:13:00,
2013-02-10 18:43:00,45.4,41.0,30.17,East,94,0.0,1.0,84,0.00,,,0.00,weatherlink.com 1.10,2013-02-10 23:43:00,
2013-02-10 18:58:00,45.2,41.0,30.16,ESE,105,1.0,4.0,85,0.00,,,0.00,weatherlink.com 1.10,2013-02-10 23:58:00,
2013-02-10 19:13:00,45.0,41.0,30.15,East,83,3.0,4.0,84,0.00,,,0.00,weatherlink.com 1.10,2013-02-11 00:13:00,
2013-02-10 19:28:00,44.9,40.0,30.15,ESE,105,1.0,4.0,83,0.00,,,0.00,weatherlink.com 1.10,2013-02-11 00:28:00,
2013-02-10 19:43:00,44.8,40.0,30.15,East,79,3.0,5.0,83,0.00,,,0.00,weatherlink.com 1.10,2013-02-11 00:43:00,
2013-02-10 19:58:00,44.7,40.0,30.16,East,96,3.0,4.0,84,0.00,,,0.00,weatherlink.com 1.10,2013-02-11 00:58:00,
2013-02-10 20:13:00,44.6,40.0,30.15,ESE,108,2.0,4.0,84,0.00,,,0.00,weatherlink.com 1.10,2013-02-11 01:13:00,
2013-02-10 20:28:00,44.5,40.0,30.15,SE,129,0.0,3.0,85,0.00,,,0.00,weatherlink.com 1.10,2013-02-11 01:28:00,
2013-02-10 20:43:00,44.6,41.0,30.15,East,101,1.0,4.0,86,0.00,,,0.00,weatherlink.com 1.10,2013-02-11 01:43:00,
2013-02-10 20:58:00,44.7,41.0,30.15,ESE,108,2.0,3.0,87,0.00,,,0.00,weatherlink.com 1.10,2013-02-11 01:58:00,
2013-02-10 21:13:00,45.1,42.0,30.14,East,86,0.0,4.0,87,0.00,,,0.00,weatherlink.com 1.10,2013-02-11 02:13:00,
2013-02-10 21:28:00,45.3,42.0,30.14,East,98,1.0,2.0,88,0.00,,,0.00,weatherlink.com 1.10,2013-02-11 02:28:00,
2013-02-10 21:43:00,45.4,42.0,30.14,East,84,1.0,3.0,88,0.00,,,0.00,weatherlink.com 1.10,2013-02-11 02:43:00,
2013-02-10 21:58:00,45.9,43.0,30.13,ESE,121,0.0,3.0,89,0.00,,,0.00,weatherlink.com 1.10,2013-02-11 02:58:00,
2013-02-10 22:13:00,46.4,43.0,30.14,SE,127,0.0,4.0,89,0.00,,,0.00,weatherlink.com 1.10,2013-02-11 03:13:00,
2013-02-10 22:28:00,46.4,43.0,30.13,ENE,62,1.0,3.0,89,0.00,,,0.00,weatherlink.com 1.10,2013-02-11 03:28:00,
2013-02-10 22:43:00,46.9,44.0,30.12,East,91,1.0,6.0,89,0.00,,,0.00,weatherlink.com 1.10,2013-02-11 03:43:00,
2013-02-10 22:58:00,46.9,44.0,30.12,East,79,1.0,5.0,90,0.00,,,0.00,weatherlink.com 1.10,2013-02-11 03:58:00,
2013-02-10 23:13:00,47.1,44.0,30.12,East,83,1.0,2.0,90,0.00,,,0.00,weatherlink.com 1.10,2013-02-11 04:13:00,
2013-02-10 23:28:00,47.3,45.0,30.14,North,9,1.0,2.0,90,0.00,,,0.00,weatherlink.com 1.10,2013-02-11 04:28:00,
2013-02-10 23:43:00,47.3,45.0,30.14,ENE,68,1.0,3.0,90,0.00,,,0.00,weatherlink.com 1.10,2013-02-11 04:43:00,
2013-02-10 23:58:00,47.5,45.0,30.13,East,79,0.0,2.0,90,0.00,,,0.00,weatherlink.com 1.10,2013-02-11 04:58:00,